STARLINK-4359 (53226 NORAD) Tracking and Keplerian Element Data

This shows tracking and keplerian element data for the satellite.

Feedback or suggestion? Click here.




ElementValue
Catalog53226
NameSTARLINK-4359
Epoch Orbit1035
Epoch Day270.13293466
Epoch Year2022
RAAN329.963
Inclination97.6523
Eccentricity0.0001332
Argument of Perigee112.9004
Mean Anonmoly247.236
Mean Motion15.0125443
Decay Rate-7.54E-06
L11 53226U 22084AP 22270.13293466 -.00000754 00000+0 -54116-4 0 9999
L22 53226 97.6523 329.9630 0001332 112.9004 247.2360 15.01254430 10358

Live tracking and technical data element details for STARLINK-4359 (NORAD 53226). STARLINK-4359 can be tracked NOW for your location showing map with azimuth and elevation plus other details from your city location.

Track the satellite on the map from your city or location and see movement details for azimuth, elevation, latitude, longitude, range, height, and movement on the map or in text.







IsCatalogInMostPopularTable: catalog: 53226, numindb: 7
Update: records affected: 1



GetName: 53226 STARLINK-4359

Hit Count: updated at: Wed, 28 Sep 2022 21:28:58 GMT